W5CGC Weather Reports


time (UTC)temp
F
wind
direction
speed
knots
gust
knots
rain 1hr
in
rain 24hr
in
rain mn
in
humidity
%
barometer
mb
20260504081542 65 105 1.7 10.4 0.00 0.00 0.00 46 1013.2
20260504044536 68 88 0.0 4.3 0.00 0.00 0.00 39 1015.4
20260504043036 68 110 0.9 4.3 0.00 0.00 0.00 38 1015.5
20260504041534 68 77 0.0 3.5 0.00 0.00 0.00 38 1015.7
20260504040035 68 43 0.9 5.2 0.00 0.00 0.00 37 1015.7
20260504034535 69 87 1.7 6.1 0.00 0.00 0.00 37 1015.4
20260504033040 69 82 0.9 3.5 0.00 0.00 0.00 36 1015.5
20260504031534 70 0 0.9 4.3 0.00 0.00 0.00 34 1015.5
20260504030041 70 51 0.9 6.1 0.00 0.00 0.00 33 1015.3
20260504024532 71 42 0.0 4.3 0.00 0.00 0.00 31 1015.4
20260504023035 72 37 1.7 6.1 0.00 0.00 0.00 30 1015.3
20260504021531 73 0 0.9 7.8 0.00 0.00 0.00 28 1015.2
20260504020037 73 107 2.6 6.1 0.00 0.00 0.00 27 1015.1
20260504014549 74 240 1.7 10.4 0.00 0.00 0.00 26 1015.2
20260504013040 74 11 2.6 7.8 0.00 0.00 0.00 25 1015.1
20260504011536 75 27 1.7 7.0 0.00 0.00 0.00 25 1014.9
20260504010034 75 60 0.9 6.1 0.00 0.00 0.00 25 1014.7
20260504004532 76 352 1.7 8.7 0.00 0.00 0.00 24 1014.7
20260504003041 76 0 0.9 7.0 0.00 0.00 0.00 24 1014.7
20260504001545 77 72 0.9 5.2 0.00 0.00 0.00 23 1014.8
20260504000043 78 0 0.9 7.8 0.00 0.00 0.00 22 1014.9
20260503234535 79 112 0.9 7.0 0.00 0.00 0.00 22 1015.1
20260503233031 80 6 0.9 7.8 0.00 0.00 0.00 22 1015.1
20260503231533 80 3 0.9 9.6 0.00 0.00 0.00 21 1015.3
20260503230037 80 33 1.7 10.4 0.00 0.00 0.00 20 1015.3
20260503224539 81 290 0.0 7.0 0.00 0.00 0.00 20 1015.4
20260503223036 82 58 0.9 7.8 0.00 0.00 0.00 19 1015.5
20260503221542 82 17 1.7 7.8 0.00 0.00 0.00 18 1015.4
20260503220035 83 12 1.7 8.7 0.00 0.00 0.00 16 1015.8
20260503214534 83 63 1.7 7.8 0.00 0.00 0.00 17 1015.8
20260503213035 84 84 0.9 2.6 0.00 0.00 0.00 19 1016.1
20260503211532 84 83 0.9 8.7 0.00 0.00 0.00 17 1016.2
20260503210048 84 98 0.0 7.8 0.00 0.00 0.00 17 1016.4
20260503204541 84 79 0.9 5.2 0.00 0.00 0.00 19 1016.7
20260503203036 84 0 0.0 4.3 0.00 0.00 0.00 18 1017.1
20260503201536 84 82 0.0 6.1 0.00 0.00 0.00 16 1017.3
20260503200043 85 98 0.0 3.5 0.00 0.00 0.00 20 1017.6
20260503194533 84 342 0.9 5.2 0.00 0.00 0.00 18 1017.8
20260503193038 84 228 0.0 5.2 0.00 0.00 0.00 19 1018.0
20260503191535 84 0 0.0 6.1 0.00 0.00 0.00 26 1018.3
20260503190043 84 309 0.9 4.3 0.00 0.00 0.00 21 1018.6
20260503184535 84 77 0.0 2.6 0.00 0.00 0.00 26 1018.8
20260503183033 83 0 0.9 6.1 0.00 0.00 0.00 23 1019.1
20260503181537 83 89 0.0 6.1 0.00 0.00 0.00 25 1019.4
20260503180033 82 118 0.9 3.5 0.00 0.00 0.00 26 1019.6
20260503174534 82 75 1.7 4.3 0.00 0.00 0.00 26 1019.8
20260503173049 81 27 0.9 2.6 0.00 0.00 0.00 28 1020.0
20260503171531 80 94 0.9 3.5 0.00 0.00 0.00 31 1020.2